| time (UTC) | temp F | wind direction | speed MPH | gust MPH | rain 1hr in | rain 24hr in | rain mn in | humidity % | barometer mb |
| 20260904074523 | 45 | 277 | 0.0 | 7.0 | 0.00 | 0.00 | 0.00 | 82 | 1006.9 |
| 20260904073027 | 45 | 197 | 0.0 | 4.0 | 0.00 | 0.00 | 0.00 | 81 | 1006.9 |
| 20260904071520 | 45 | 274 | 0.0 | 4.0 | 0.00 | 0.00 | 0.00 | 81 | 1006.9 |
| 20260904070035 | 45 | 270 | 0.0 | 5.0 | 0.00 | 0.00 | 0.00 | 82 | 1006.7 |
| 20260904064517 | 45 | 280 | 0.0 | 4.0 | 0.00 | 0.00 | 0.00 | 83 | 1006.5 |
| 20260904063017 | 45 | 301 | 0.0 | 4.0 | 0.00 | 0.00 | 0.00 | 83 | 1006.4 |
| 20260904061521 | 45 | 268 | 0.0 | 2.0 | 0.00 | 0.00 | 0.00 | 81 | 1006.4 |
| 20260904060015 | 45 | 236 | 0.0 | 4.0 | 0.00 | 0.00 | 0.00 | 80 | 1006.6 |
| 20260904054517 | 45 | 280 | 0.0 | 5.0 | 0.00 | 0.00 | 0.00 | 81 | 1006.7 |
| 20260904053012 | 45 | 273 | 0.0 | 3.0 | 0.00 | 0.00 | 0.00 | 83 | 1006.7 |
| 20260904051511 | 45 | 275 | 0.0 | 5.0 | 0.00 | 0.00 | 0.00 | 83 | 1007.0 |
| 20260904050024 | 44 | 277 | 0.0 | 3.0 | 0.00 | 0.00 | 0.00 | 84 | 1007.2 |
| 20260904044517 | 44 | 269 | 0.0 | 3.0 | 0.00 | 0.00 | 0.00 | 83 | 1007.3 |
| 20260904043008 | 45 | 271 | 0.0 | 4.0 | 0.00 | 0.00 | 0.00 | 82 | 1007.3 |
| 20260904041507 | 45 | 280 | 0.0 | 7.0 | 0.00 | 0.00 | 0.00 | 79 | 1007.6 |
| 20260904040006 | 45 | 266 | 0.0 | 4.0 | 0.00 | 0.00 | 0.00 | 79 | 1007.5 |
| 20260904034506 | 45 | 235 | 0.0 | 5.0 | 0.00 | 0.00 | 0.00 | 80 | 1007.3 |
| 20260904033005 | 45 | 278 | 0.0 | 3.0 | 0.00 | 0.00 | 0.00 | 80 | 1007.2 |
| 20260904031504 | 45 | 264 | 0.0 | 5.0 | 0.00 | 0.00 | 0.00 | 80 | 1007.0 |
| 20260904030003 | 45 | 277 | 0.0 | 4.0 | 0.00 | 0.00 | 0.00 | 80 | 1007.1 |
| 20260904024502 | 45 | 333 | 0.0 | 5.0 | 0.00 | 0.00 | 0.00 | 79 | 1007.0 |
| 20260904023001 | 45 | 273 | 1.0 | 5.0 | 0.00 | 0.00 | 0.00 | 79 | 1007.0 |
| 20260904021603 | 46 | 271 | 0.0 | 7.0 | 0.00 | 0.00 | 0.00 | 79 | 1007.0 |
| 20260904020059 | 46 | 259 | 0.0 | 4.0 | 0.00 | 0.00 | 0.00 | 80 | 1007.1 |
| 20260904014610 | 46 | 274 | 0.0 | 6.0 | 0.00 | 0.00 | 0.00 | 80 | 1007.1 |
| 20260904013100 | 46 | 271 | 0.0 | 3.0 | 0.00 | 0.00 | 0.00 | 79 | 1007.1 |
| 20260904011558 | 46 | 231 | 0.0 | 4.0 | 0.00 | 0.00 | 0.00 | 78 | 1007.0 |
| 20260904010059 | 47 | 278 | 1.0 | 4.0 | 0.00 | 0.00 | 0.00 | 77 | 1007.2 |
| 20260904004556 | 47 | 289 | 1.0 | 9.0 | 0.00 | 0.00 | 0.00 | 77 | 1007.2 |
| 20260904003056 | 47 | 239 | 1.0 | 7.0 | 0.00 | 0.00 | 0.00 | 77 | 1007.2 |
| 20260904001601 | 47 | 280 | 1.0 | 6.0 | 0.00 | 0.00 | 0.00 | 77 | 1007.2 |
| 20260904000114 | 47 | 242 | 0.0 | 5.0 | 0.00 | 0.00 | 0.00 | 77 | 1007.3 |
| 20260903234554 | 48 | 276 | 2.0 | 4.0 | 0.00 | 0.00 | 0.00 | 77 | 1007.3 |
| 20260903233117 | 48 | 271 | 0.0 | 4.0 | 0.00 | 0.00 | 0.00 | 78 | 1007.2 |
| 20260903231552 | 48 | 284 | 0.0 | 2.0 | 0.00 | 0.00 | 0.00 | 77 | 1007.2 |
| 20260903230107 | 48 | 253 | 1.0 | 5.0 | 0.00 | 0.00 | 0.00 | 75 | 1007.5 |
| 20260903224606 | 48 | 276 | 0.0 | 4.0 | 0.00 | 0.00 | 0.00 | 73 | 1007.6 |
| 20260903223118 | 49 | 260 | 0.0 | 4.0 | 0.00 | 0.00 | 0.00 | 72 | 1007.7 |
| 20260903221546 | 49 | 312 | 0.0 | 5.0 | 0.00 | 0.00 | 0.00 | 72 | 1007.8 |
| 20260903220043 | 49 | 252 | 0.0 | 4.0 | 0.00 | 0.00 | 0.00 | 70 | 1008.0 |
| 20260903214549 | 49 | 252 | 0.0 | 5.0 | 0.00 | 0.00 | 0.00 | 69 | 1008.1 |
| 20260903213056 | 49 | 262 | 1.0 | 5.0 | 0.00 | 0.00 | 0.00 | 68 | 1008.2 |
| 20260903211543 | 50 | 177 | 0.0 | 4.0 | 0.00 | 0.00 | 0.00 | 68 | 1008.1 |
| 20260903204543 | 50 | 256 | 0.0 | 4.0 | 0.00 | 0.00 | 0.00 | 65 | 1008.5 |
| 20260903203038 | 50 | 287 | 0.0 | 7.0 | 0.00 | 0.00 | 0.00 | 63 | 1008.6 |
| 20260903201537 | 51 | 195 | 0.0 | 5.0 | 0.00 | 0.00 | 0.00 | 63 | 1008.8 |
| 20260903200034 | 51 | 242 | 1.0 | 5.0 | 0.00 | 0.00 | 0.00 | 61 | 1008.7 |
| 20260903194542 | 51 | 276 | 0.0 | 4.0 | 0.00 | 0.00 | 0.00 | 60 | 1009.0 |
| 20260903193032 | 51 | 245 | 0.0 | 2.0 | 0.00 | 0.00 | 0.00 | 59 | 1009.0 |
| 20260903191530 | 52 | 352 | 0.0 | 2.0 | 0.00 | 0.00 | 0.00 | 58 | 1009.4 |
| 20260903190030 | 52 | 280 | 0.0 | 3.0 | 0.00 | 0.00 | 0.00 | 58 | 1009.6 |
| 20260903184528 | 52 | 269 | 0.0 | 3.0 | 0.00 | 0.00 | 0.00 | 56 | 1009.7 |
| 20260903183026 | 53 | 116 | 0.0 | 3.0 | 0.00 | 0.00 | 0.00 | 56 | 1009.7 |
| 20260903181522 | 51 | 276 | 0.0 | 3.0 | 0.00 | 0.00 | 0.00 | 58 | 1009.8 |
| 20260903180019 | 50 | 246 | 0.0 | 6.0 | 0.00 | 0.00 | 0.00 | 58 | 1009.9 |
| 20260903174518 | 50 | 257 | 0.0 | 4.0 | 0.00 | 0.00 | 0.00 | 58 | 1010.3 |
| 20260903173015 | 49 | 273 | 0.0 | 4.0 | 0.00 | 0.00 | 0.00 | 59 | 1010.2 |
| 20260903171518 | 48 | 256 | 0.0 | 4.0 | 0.00 | 0.00 | 0.00 | 60 | 1010.5 |
| 20260903170015 | 49 | 264 | 0.0 | 5.0 | 0.00 | 0.00 | 0.00 | 60 | 1010.7 |
| 20260903164510 | 49 | 264 | 0.0 | 2.0 | 0.00 | 0.00 | 0.00 | 59 | 1010.8 |
| 20260903163013 | 48 | 270 | 0.0 | 3.0 | 0.00 | 0.00 | 0.00 | 58 | 1011.0 |
| 20260903161520 | 48 | 277 | 0.0 | 3.0 | 0.00 | 0.00 | 0.00 | 58 | 1011.0 |
| 20260903160005 | 48 | 332 | 0.0 | 3.0 | 0.00 | 0.00 | 0.00 | 56 | 1011.2 |
| 20260903154505 | 47 | 259 | 0.0 | 4.0 | 0.00 | 0.00 | 0.00 | 54 | 1011.6 |
| 20260903153004 | 48 | 247 | 0.0 | 2.0 | 0.00 | 0.00 | 0.00 | 51 | 1011.6 |
| 20260903151501 | 47 | 264 | 0.0 | 4.0 | 0.00 | 0.00 | 0.00 | 46 | 1011.6 |
| 20260903150106 | 46 | 270 | 0.0 | 3.0 | 0.00 | 0.00 | 0.00 | 43 | 1011.7 |
| 20260903144558 | 46 | 274 | 0.0 | 5.0 | 0.00 | 0.00 | 0.00 | 43 | 1011.6 |
| 20260903143104 | 45 | 270 | 0.0 | 3.0 | 0.00 | 0.00 | 0.00 | 41 | 1011.4 |
| 20260903141608 | 45 | 278 | 0.0 | 2.0 | 0.00 | 0.00 | 0.00 | 42 | 1011.4 |
| 20260903140052 | 45 | 292 | 0.0 | 6.0 | 0.00 | 0.00 | 0.00 | 43 | 1011.3 |
| 20260903134552 | 44 | 252 | 0.0 | 3.0 | 0.00 | 0.00 | 0.00 | 41 | 1011.1 |
| 20260903133051 | 44 | 266 | 0.0 | 2.0 | 0.00 | 0.00 | 0.00 | 41 | 1011.1 |
| 20260903131605 | 44 | 232 | 0.0 | 1.0 | 0.00 | 0.00 | 0.00 | 43 | 1011.0 |
| 20260903130053 | 44 | 298 | 0.0 | 2.0 | 0.00 | 0.00 | 0.00 | 44 | 1011.1 |
| 20260903124547 | 44 | 283 | 0.0 | 2.0 | 0.00 | 0.00 | 0.00 | 45 | 1011.1 |
| 20260903123046 | 44 | 300 | 0.0 | 2.0 | 0.00 | 0.00 | 0.00 | 45 | 1011.2 |
| 20260903121557 | 44 | 270 | 0.0 | 3.0 | 0.00 | 0.00 | 0.00 | 47 | 1011.3 |
| 20260903120042 | 44 | 271 | 0.0 | 1.0 | 0.00 | 0.00 | 0.00 | 48 | 1011.5 |
| 20260903114540 | 44 | 269 | 0.0 | 2.0 | 0.00 | 0.00 | 0.00 | 49 | 1011.5 |
| 20260903113038 | 44 | 274 | 0.0 | 1.0 | 0.00 | 0.00 | 0.00 | 57 | 1011.7 |
| 20260903111544 | 44 | 228 | 0.0 | 1.0 | 0.00 | 0.00 | 0.00 | 57 | 1011.9 |
| 20260903110034 | 44 | 263 | 0.0 | 1.0 | 0.00 | 0.00 | 0.00 | 60 | 1011.8 |
| 20260903104547 | 44 | 269 | 0.0 | 1.0 | 0.00 | 0.00 | 0.00 | 64 | 1011.9 |
| 20260903103032 | 44 | 263 | 0.0 | 1.0 | 0.00 | 0.00 | 0.00 | 65 | 1012.0 |
| 20260903101537 | 44 | 276 | 0.0 | 1.0 | 0.00 | 0.00 | 0.00 | 66 | 1012.0 |
| 20260903100040 | 44 | 225 | 0.0 | 5.0 | 0.00 | 0.00 | 0.00 | 66 | 1011.9 |
| 20260903094529 | 44 | 218 | 0.0 | 2.0 | 0.00 | 0.00 | 0.00 | 66 | 1012.0 |
| 20260903093032 | 44 | 280 | 0.0 | 2.0 | 0.00 | 0.00 | 0.00 | 68 | 1012.1 |
| 20260903091525 | 44 | 276 | 0.0 | 2.0 | 0.00 | 0.00 | 0.00 | 69 | 1012.4 |
| 20260903090025 | 44 | 263 | 0.0 | 2.0 | 0.00 | 0.00 | 0.00 | 70 | 1012.4 |
| 20260903084522 | 44 | 225 | 0.0 | 2.0 | 0.00 | 0.00 | 0.00 | 71 | 1012.4 |
| 20260903083020 | 44 | 270 | 0.0 | 4.0 | 0.00 | 0.00 | 0.00 | 71 | 1012.6 |
| 20260903081522 | 44 | 203 | 0.0 | 3.0 | 0.00 | 0.00 | 0.00 | 72 | 1012.6 |
| 20260903080016 | 44 | 277 | 0.0 | 2.0 | 0.00 | 0.00 | 0.00 | 71 | 1012.7 |